Regional Weather Roundup
Issued by NWS

Home | Current Version | Previous Version | Text Only | Print | Product List | Glossary On
Versions: 1 2 3 4 5 6 7 8 9 10 11 12 13 14 15 16 17 18 19 20 21 22 23 24 25 26 27 28 29 30 31 32 33 34 35 36 37 38 39 40 41 42 43 44 45 46 47 48 49
000
ASUS46 KSEW 071720
RWRWA

WASHINGTON REGIONAL WEATHER ROUNDUP
NATIONAL WEATHER SERVICE SEATTLE WA
1000 AM PDT THU JUL 07 2022

NOTE:"FAIR" INDICATES FEW OR NO CLOUDS BELOW 12,000 FEET WITH NO
SIGNIFICANT WEATHER AND/OR OBSTRUCTIONS TO VISIBILITY.

WAZ507-509-555>559-071800-
SEATTLE, TACOMA, EVERETT, AND VICINITY

CITY           SKY/WX    TMP DP  RH WIND       PRES   REMARKS
EVERETT        PTSUNNY   65  54  67 CALM      30.06R
BOEING FIELD   PTSUNNY   66  56  70 S5        30.04R
RENTON         PTSUNNY   67  54  63 VRB5      30.04R
SEATAC AIRPORT PTSUNNY   66  54  65 SW7       30.05R
JBLM-MCCHORD   PTSUNNY   67  57  70 S6        30.04S
PUYALLUP       FAIR      66  59  77 CALM      30.05S
BREMERTON      MOSUNNY   66  57  72 SW3       30.05R
JBLM-FT LEWIS  MOSUNNY   66  58  74 SW6       30.03S
TACOMA NARROWS MOSUNNY   64  56  75 S3        30.04S
$$

WAZ001-503-506-510-514-515-071800-
NORTH INTERIOR

CITY           SKY/WX    TMP DP  RH WIND       PRES   REMARKS
BELLINGHAM     CLOUDY    63  58  83 S8        30.03S
FRIDAY HARBOR  CLOUDY    58  54  86 SE6       30.05R
PORT ANGELES   CLOUDY    63  54  72 N6        30.05S
EDIZ HOOK      CLOUDY    58  54  86 W7        30.05R
PORT TOWNSEND  CLOUDY    63  55  77 CALM      30.04R
NAS WHIDBEY    PTSUNNY   61  53  75 W9        30.09R
ARLINGTON      CLOUDY    67  57  70 S5        30.05R
BURLINGTON     CLOUDY    63  57  82 CALM      30.05R
$$

WAZ020-022-039-040-504-511-512-071800-
SOUTHWEST INTERIOR

CITY           SKY/WX    TMP DP  RH WIND       PRES   REMARKS
SHELTON        PTSUNNY   67  55  65 SW10      30.02R
OLYMPIA        MOSUNNY   66  56  70 S5        30.04S
CHEHALIS       FAIR      66  61  82 CALM      30.05S
KELSO          PTSUNNY   66  59  78 VRB3      30.06R
VANCOUVER      PTSUNNY   66  57  72 CALM      30.05S
SCAPPOOSE, OR  CLOUDY    66  59  78 VRB3      30.04S
PORTLAND, OR   PTSUNNY   69  58  67 N3        30.05S
$$

WAZ021-516-517-071800-
WASHINGTON COAST

CITY           SKY/WX    TMP DP  RH WIND       PRES   REMARKS
FORKS          MOSUNNY   62  56  80 W6        30.05R
HOQUIAM        LGT RAIN  62  57  83 VRB3      30.05S
ASTORIA, OR    CLOUDY    65  59  81 SW10      30.04S
$$

WAZ019-023-024-040-567>569-071800-
CASCADE MOUNTAINS AND COLUMBIA GORGE

CITY           SKY/WX    TMP DP  RH WIND       PRES   REMARKS
STAMPEDE PASS  PTSUNNY   55  52  89 VRB3      30.09S
TROUTDALE, OR  CLOUDY    66  58  75 W3        30.05S
HOOD RIVER, OR MOSUNNY   70  55  60 NW7       30.02S
THE DALLES, OR MOSUNNY   74  58  57 NW9       30.00S
$$

WAZ026-027-041>044-520-521-071800-
EAST SLOPES

CITY           SKY/WX    TMP DP  RH WIND       PRES   REMARKS
OMAK           PTSUNNY   70  58  65 S7        29.99S
WENATCHEE      MOSUNNY   65  54  67 W5        29.98S
ELLENSBURG     MOSUNNY   68  55  63 W9        30.01S
YAKIMA         MOSUNNY   67  55  65 CALM      30.00F
SUNNYSIDE ARPT CLOUDY    68  58  69 CALM      30.00S
YAKIMA TC      NOT AVBL
$$

WAZ028-034-035-071800-
COLUMBIA BASIN

CITY           SKY/WX    TMP DP  RH WIND       PRES   REMARKS
EPHRATA        PTSUNNY   65  59  81 SE3       29.99S
MOSES LAKE     PTSUNNY   65  59  81 S6        30.00S
PASCO          CLOUDY    75  56  51 CALM      29.98S
RICHLAND ARPT  MOSUNNY   78  57  47 E5        29.98F
HERMISTON, OR  CLOUDY    74  55  51 W6        30.00R
$$

WAZ036>038-071800-
NORTHEAST WASHINGTON

CITY           SKY/WX    TMP DP  RH WIND       PRES   REMARKS
SPOKANE GEIGER PTSUNNY   68  52  56 N13       30.03R
SPOKANE FELTS  PTSUNNY   71  55  56 N5        30.02R
FAIRCHILD AFB  CLOUDY    67  57  70 NW12      30.02R
COEURDALENE,ID MOSUNNY   68  59  73 NW3       30.02S
DEER PARK      CLOUDY    69  53  56 NW7       30.02S
$$

WAZ029>033-071800-
SOUTHEAST WASHINGTON

CITY           SKY/WX    TMP DP  RH WIND       PRES   REMARKS
PULLMAN        CLOUDY    68  59  73 NW6       30.03S
LEWISTON, ID   PTSUNNY   74  56  53 W8        29.99S
WALLA WALLA    CLOUDY    69  54  58 VRB6      30.01R
PENDLETON, OR  CLOUDY    71  52  50 SW6       30.02S
$$



USA.gov is the U.S. government's official web portal to all federal, state and local government web resources and services.